Time,TemperatureF,DewpointF,PressureIn,WindDirection,WindDirectionDegrees,WindSpeedMPH,WindSpeedGustMPH,Humidity,HourlyPrecipIn,Conditions,Clouds,dailyrainin,SoftwareType,DateUTC
2013-07-21 00:01:00,69.1,66.7,29.87,SW,217,0.0,0.0,92,0.00,,---,0.00,VWS V14.00,2013-07-21 05:01:00,
2013-07-21 00:06:00,68.8,66.4,29.87,SW,217,0.0,0.0,92,0.00,,---,0.00,VWS V14.00,2013-07-21 05:06:00,
2013-07-21 00:11:00,68.6,66.2,29.87,SW,217,0.0,0.0,92,0.00,,---,0.00,VWS V14.00,2013-07-21 05:11:00,
2013-07-21 00:17:00,68.3,65.9,29.87,SW,217,0.0,0.0,92,0.00,,---,0.00,VWS V14.00,2013-07-21 05:17:00,
2013-07-21 00:22:00,68.3,66.2,29.86,SW,217,0.0,0.0,93,0.00,,---,0.00,VWS V14.00,2013-07-21 05:22:00,
2013-07-21 00:27:00,68.3,66.2,29.86,SW,217,0.0,0.0,93,0.00,,---,0.00,VWS V14.00,2013-07-21 05:27:00,
2013-07-21 00:32:00,67.8,65.4,29.86,SW,217,2.0,2.0,92,0.00,,---,0.00,VWS V14.00,2013-07-21 05:32:00,
2013-07-21 00:37:00,67.8,66.0,29.86,SW,217,0.0,0.0,94,0.00,,---,0.00,VWS V14.00,2013-07-21 05:37:00,
2013-07-21 00:42:00,67.9,66.1,29.86,SW,217,0.0,0.0,94,0.00,,---,0.00,VWS V14.00,2013-07-21 05:42:00,
2013-07-21 00:47:00,68.1,66.3,29.86,SW,217,0.0,0.0,94,0.00,,---,0.00,VWS V14.00,2013-07-21 05:47:00,
2013-07-21 00:53:00,68.1,66.6,29.86,SW,217,0.0,0.0,95,0.00,,---,0.00,VWS V14.00,2013-07-21 05:53:00,
2013-07-21 00:58:00,68.4,66.9,29.86,SW,217,0.0,0.0,95,0.00,,---,0.00,VWS V14.00,2013-07-21 05:58:00,
2013-07-21 01:05:00,68.4,66.9,29.85,SW,217,0.0,0.0,95,0.00,,---,0.00,VWS V14.00,2013-07-21 06:05:00,
2013-07-21 01:10:00,68.8,67.6,29.85,SW,217,0.0,0.0,96,0.00,,---,0.00,VWS V14.00,2013-07-21 06:10:00,
2013-07-21 01:18:00,68.9,67.7,29.85,SW,217,0.0,0.0,96,0.00,,---,0.00,VWS V14.00,2013-07-21 06:18:00,
2013-07-21 01:24:00,68.9,67.7,29.85,SW,217,0.0,0.0,96,0.00,,---,0.00,VWS V14.00,2013-07-21 06:24:00,
2013-07-21 01:29:00,68.6,67.4,29.85,SW,217,0.0,0.0,96,0.00,,---,0.00,VWS V14.00,2013-07-21 06:29:00,
2013-07-21 01:34:00,67.9,66.7,29.85,SW,217,0.0,0.0,96,0.00,,---,0.00,VWS V14.00,2013-07-21 06:34:00,
2013-07-21 01:39:00,68.3,67.1,29.85,SW,217,0.0,0.0,96,0.00,,---,0.00,VWS V14.00,2013-07-21 06:39:00,
2013-07-21 01:44:00,68.4,67.5,29.85,SW,217,0.0,0.0,97,0.00,,---,0.00,VWS V14.00,2013-07-21 06:44:00,
2013-07-21 01:49:00,67.9,66.7,29.86,SW,217,0.0,0.0,96,0.00,,---,0.00,VWS V14.00,2013-07-21 06:49:00,
2013-07-21 01:54:00,67.8,66.9,29.86,SW,217,0.0,0.0,97,0.00,,---,0.00,VWS V14.00,2013-07-21 06:54:00,
2013-07-21 01:59:00,68.3,67.4,29.86,SW,217,0.0,0.0,97,0.00,,---,0.00,VWS V14.00,2013-07-21 06:59:00,
2013-07-21 02:04:00,68.4,67.5,29.85,SW,217,0.0,0.0,97,0.00,,---,0.00,VWS V14.00,2013-07-21 07:04:00,
2013-07-21 02:09:00,68.6,67.7,29.85,SW,217,0.0,0.0,97,0.00,,---,0.00,VWS V14.00,2013-07-21 07:09:00,
2013-07-21 02:14:00,68.8,67.9,29.85,SW,217,0.0,0.0,97,0.00,,---,0.00,VWS V14.00,2013-07-21 07:14:00,
2013-07-21 02:20:00,68.3,67.4,29.85,SW,217,0.0,0.0,97,0.00,,---,0.00,VWS V14.00,2013-07-21 07:20:00,
2013-07-21 02:29:00,67.9,67.0,29.85,SW,217,0.0,0.0,97,0.00,,---,0.00,VWS V14.00,2013-07-21 07:29:00,
2013-07-21 02:34:00,68.3,67.7,29.85,SW,217,0.0,0.0,98,0.00,,---,0.00,VWS V14.00,2013-07-21 07:34:00,
2013-07-21 02:39:00,68.4,67.8,29.85,SW,217,0.0,0.0,98,0.00,,---,0.00,VWS V14.00,2013-07-21 07:39:00,
2013-07-21 02:44:00,68.6,68.0,29.85,SW,217,0.0,0.0,98,0.00,,---,0.00,VWS V14.00,2013-07-21 07:44:00,
2013-07-21 02:49:00,68.6,68.0,29.85,SW,217,0.0,0.0,98,0.00,,---,0.00,VWS V14.00,2013-07-21 07:49:00,
2013-07-21 02:54:00,69.1,68.8,29.85,SW,217,0.0,0.0,99,0.00,,---,0.00,VWS V14.00,2013-07-21 07:54:00,
2013-07-21 02:59:00,69.3,68.7,29.85,SW,217,0.0,0.0,98,0.00,,---,0.00,VWS V14.00,2013-07-21 07:59:00,
2013-07-21 03:04:00,69.1,68.5,29.84,SW,217,0.0,0.0,98,0.00,,---,0.00,VWS V14.00,2013-07-21 08:04:00,
2013-07-21 03:09:00,69.1,68.5,29.84,SW,217,0.0,0.0,98,0.00,,---,0.00,VWS V14.00,2013-07-21 08:09:00,
2013-07-21 03:14:00,69.4,68.8,29.84,SW,217,0.0,0.0,98,0.00,,---,0.00,VWS V14.00,2013-07-21 08:14:00,
2013-07-21 03:19:00,69.4,68.8,29.84,SW,217,0.0,0.0,98,0.00,,---,0.00,VWS V14.00,2013-07-21 08:19:00,
2013-07-21 03:24:00,69.1,68.5,29.84,SW,217,0.0,0.0,98,0.00,,---,0.00,VWS V14.00,2013-07-21 08:24:00,
2013-07-21 03:29:00,68.4,67.8,29.84,SW,217,0.0,0.0,98,0.00,,---,0.00,VWS V14.00,2013-07-21 08:29:00,
2013-07-21 03:34:00,67.8,67.2,29.85,SW,217,0.0,0.0,98,0.00,,---,0.00,VWS V14.00,2013-07-21 08:34:00,
2013-07-21 03:39:00,67.6,67.3,29.85,SW,217,0.0,0.0,99,0.00,,---,0.00,VWS V14.00,2013-07-21 08:39:00,
2013-07-21 03:44:00,67.8,67.5,29.85,SW,217,0.0,0.0,99,0.00,,---,0.00,VWS V14.00,2013-07-21 08:44:00,
2013-07-21 03:49:00,68.4,68.1,29.85,SW,217,0.0,0.0,99,0.00,,---,0.00,VWS V14.00,2013-07-21 08:49:00,
2013-07-21 03:54:00,68.6,68.3,29.85,SW,217,0.0,0.0,99,0.00,,---,0.00,VWS V14.00,2013-07-21 08:54:00,
2013-07-21 03:59:00,68.6,68.3,29.85,SW,217,0.0,0.0,99,0.00,,---,0.00,VWS V14.00,2013-07-21 08:59:00,
2013-07-21 04:04:00,68.3,68.0,29.84,SW,217,0.0,0.0,99,0.00,,---,0.00,VWS V14.00,2013-07-21 09:04:00,
2013-07-21 04:10:00,67.6,67.0,29.84,SW,217,0.0,0.0,98,0.00,,---,0.00,VWS V14.00,2013-07-21 09:10:00,
2013-07-21 04:15:00,66.4,65.8,29.84,SW,217,0.0,0.0,98,0.00,,---,0.00,VWS V14.00,2013-07-21 09:15:00,
2013-07-21 04:20:00,66.1,65.8,29.84,SW,217,0.0,0.0,99,0.00,,---,0.00,VWS V14.00,2013-07-21 09:20:00,
2013-07-21 04:25:00,66.0,65.7,29.84,SW,217,0.0,0.0,99,0.00,,---,0.00,VWS V14.00,2013-07-21 09:25:00,
2013-07-21 04:30:00,65.8,65.5,29.84,SW,217,0.0,0.0,99,0.00,,---,0.00,VWS V14.00,2013-07-21 09:30:00,
2013-07-21 04:35:00,65.6,65.3,29.84,SW,217,0.0,0.0,99,0.00,,---,0.00,VWS V14.00,2013-07-21 09:35:00,
2013-07-21 04:40:00,65.6,65.3,29.84,SW,217,0.0,0.0,99,0.00,,---,0.00,VWS V14.00,2013-07-21 09:40:00,
2013-07-21 04:46:00,65.6,65.3,29.84,SW,217,0.0,0.0,99,0.00,,---,0.00,VWS V14.00,2013-07-21 09:46:00,
2013-07-21 04:51:00,65.3,65.0,29.85,SW,217,0.0,0.0,99,0.00,,---,0.00,VWS V14.00,2013-07-21 09:51:00,
2013-07-21 04:56:00,65.2,64.9,29.85,SW,217,0.0,0.0,99,0.00,,---,0.00,VWS V14.00,2013-07-21 09:56:00,
2013-07-21 05:01:00,65.2,64.9,29.85,SW,217,0.0,0.0,99,0.00,,---,0.00,VWS V14.00,2013-07-21 10:01:00,
2013-07-21 05:06:00,64.8,64.5,29.85,SW,217,0.0,0.0,99,0.00,,---,0.00,VWS V14.00,2013-07-21 10:06:00,
2013-07-21 05:11:00,64.7,64.4,29.85,SW,217,0.0,0.0,99,0.00,,---,0.00,VWS V14.00,2013-07-21 10:11:00,
2013-07-21 05:16:00,64.5,64.2,29.85,SW,217,0.0,0.0,99,0.00,,---,0.00,VWS V14.00,2013-07-21 10:16:00,
2013-07-21 05:21:00,64.3,64.0,29.86,SW,217,0.0,0.0,99,0.00,,---,0.00,VWS V14.00,2013-07-21 10:21:00,
2013-07-21 05:26:00,64.3,64.0,29.86,SW,217,0.0,0.0,99,0.00,,---,0.00,VWS V14.00,2013-07-21 10:26:00,
2013-07-21 05:31:00,64.5,64.2,29.86,SW,217,0.0,0.0,99,0.00,,---,0.00,VWS V14.00,2013-07-21 10:31:00,
2013-07-21 05:37:00,64.5,64.2,29.86,SW,217,0.0,0.0,99,0.00,,---,0.00,VWS V14.00,2013-07-21 10:37:00,
2013-07-21 05:42:00,64.8,64.5,29.86,SW,217,0.0,0.0,99,0.00,,---,0.00,VWS V14.00,2013-07-21 10:42:00,
2013-07-21 05:47:00,64.8,64.5,29.86,SW,217,0.0,0.0,99,0.00,,---,0.00,VWS V14.00,2013-07-21 10:47:00,
2013-07-21 05:52:00,64.8,64.5,29.86,SW,217,0.0,0.0,99,0.00,,---,0.00,VWS V14.00,2013-07-21 10:52:00,
2013-07-21 05:57:00,65.0,64.7,29.86,SW,217,0.0,0.0,99,0.00,,---,0.00,VWS V14.00,2013-07-21 10:57:00,
2013-07-21 06:02:00,65.0,64.7,29.86,SW,217,0.0,0.0,99,0.00,,---,0.00,VWS V14.00,2013-07-21 11:02:00,
2013-07-21 06:07:00,65.0,64.7,29.86,SW,217,0.0,0.0,99,0.00,,---,0.00,VWS V14.00,2013-07-21 11:07:00,
2013-07-21 06:14:00,65.2,64.9,29.86,SW,217,0.0,0.0,99,0.00,,---,0.00,VWS V14.00,2013-07-21 11:14:00,
2013-07-21 06:19:00,65.5,65.2,29.86,SW,217,0.0,0.0,99,0.00,,---,0.00,VWS V14.00,2013-07-21 11:19:00,
2013-07-21 06:24:00,65.5,65.2,29.86,SW,217,0.0,0.0,99,0.00,,---,0.00,VWS V14.00,2013-07-21 11:24:00,
2013-07-21 06:29:00,65.5,65.2,29.86,SW,217,2.0,2.0,99,0.00,,---,0.00,VWS V14.00,2013-07-21 11:29:00,
2013-07-21 06:34:00,65.6,65.3,29.87,SW,217,0.0,0.0,99,0.00,,---,0.00,VWS V14.00,2013-07-21 11:34:00,
2013-07-21 06:39:00,65.6,65.6,29.87,SW,217,0.0,0.0,100,0.00,,---,0.00,VWS V14.00,2013-07-21 11:39:00,
2013-07-21 06:45:00,65.8,65.5,29.87,SW,217,0.0,0.0,99,0.00,,---,0.00,VWS V14.00,2013-07-21 11:45:00,
2013-07-21 06:50:00,66.1,66.1,29.87,SW,217,0.0,0.0,100,0.00,,---,0.00,VWS V14.00,2013-07-21 11:50:00,
2013-07-21 06:58:00,66.4,66.4,29.87,SW,217,0.0,0.0,100,0.00,,---,0.00,VWS V14.00,2013-07-21 11:58:00,
2013-07-21 07:03:00,66.9,66.9,29.87,SW,217,0.0,0.0,100,0.00,,---,0.00,VWS V14.00,2013-07-21 12:03:00,
2013-07-21 07:08:00,67.1,67.1,29.87,SW,217,0.0,0.0,100,0.00,,---,0.00,VWS V14.00,2013-07-21 12:08:00,
2013-07-21 07:13:00,67.4,67.4,29.87,SW,217,0.0,0.0,100,0.00,,---,0.00,VWS V14.00,2013-07-21 12:13:00,
2013-07-21 07:18:00,68.3,68.3,29.88,SW,217,1.0,6.0,100,0.00,,---,0.00,VWS V14.00,2013-07-21 12:18:00,
2013-07-21 07:23:00,68.6,68.6,29.88,SW,217,0.0,0.0,100,0.00,,---,0.00,VWS V14.00,2013-07-21 12:23:00,
2013-07-21 07:28:00,68.8,68.8,29.88,SW,217,0.0,0.0,100,0.00,,---,0.00,VWS V14.00,2013-07-21 12:28:00,
2013-07-21 07:34:00,69.1,69.1,29.89,SW,217,0.0,0.0,100,0.00,,---,0.00,VWS V14.00,2013-07-21 12:34:00,
2013-07-21 07:39:00,69.4,69.4,29.89,SW,217,0.0,0.0,100,0.00,,---,0.00,VWS V14.00,2013-07-21 12:39:00,
2013-07-21 07:44:00,69.8,69.8,29.89,SW,217,0.0,0.0,100,0.00,,---,0.00,VWS V14.00,2013-07-21 12:44:00,
2013-07-21 07:49:00,69.9,69.9,29.89,SW,217,0.0,0.0,100,0.00,,---,0.00,VWS V14.00,2013-07-21 12:49:00,
2013-07-21 07:54:00,70.3,70.3,29.89,SW,217,0.0,0.0,100,0.00,,---,0.00,VWS V14.00,2013-07-21 12:54:00,
2013-07-21 07:59:00,70.8,70.8,29.89,SW,217,0.0,0.0,100,0.00,,---,0.00,VWS V14.00,2013-07-21 12:59:00,
2013-07-21 08:04:00,70.8,70.8,29.88,SW,217,3.0,6.0,100,0.00,,---,0.00,VWS V14.00,2013-07-21 13:04:00,
2013-07-21 08:09:00,71.3,71.3,29.88,SW,217,0.0,0.0,100,0.00,,---,0.00,VWS V14.00,2013-07-21 13:09:00,
2013-07-21 08:14:00,71.1,71.1,29.88,SSW,208,3.0,5.0,100,0.00,,---,0.00,VWS V14.00,2013-07-21 13:14:00,
2013-07-21 08:19:00,71.3,71.3,29.89,South,171,6.0,10.0,100,0.00,,---,0.00,VWS V14.00,2013-07-21 13:19:00,
2013-07-21 08:24:00,71.1,71.1,29.89,SSE,164,7.0,7.0,100,0.00,,---,0.00,VWS V14.00,2013-07-21 13:24:00,
2013-07-21 08:29:00,71.1,71.1,29.89,SSE,163,5.0,6.0,100,0.00,,---,0.00,VWS V14.00,2013-07-21 13:29:00,
2013-07-21 08:34:00,71.3,71.3,29.89,SSE,163,3.0,6.0,100,0.00,,---,0.00,VWS V14.00,2013-07-21 13:34:00,
2013-07-21 08:39:00,71.8,71.8,29.89,SSE,163,5.0,6.0,100,0.00,,---,0.00,VWS V14.00,2013-07-21 13:39:00,
2013-07-21 08:44:00,72.0,72.0,29.89,SSE,161,5.0,8.0,100,0.00,,---,0.00,VWS V14.00,2013-07-21 13:44:00,
2013-07-21 08:49:00,72.0,72.0,29.89,SSE,155,7.0,8.0,100,0.00,,---,0.00,VWS V14.00,2013-07-21 13:49:00,
2013-07-21 08:54:00,71.8,71.8,29.89,SSE,153,5.0,7.0,100,0.00,,---,0.00,VWS V14.00,2013-07-21 13:54:00,
2013-07-21 08:59:00,72.5,72.5,29.89,SE,146,6.0,9.0,100,0.00,,---,0.00,VWS V14.00,2013-07-21 13:59:00,
2013-07-21 09:04:00,72.7,72.7,29.89,SE,140,6.0,6.0,100,0.00,,---,0.00,VWS V14.00,2013-07-21 14:04:00,
2013-07-21 09:09:00,72.7,72.7,29.89,SE,137,7.0,8.0,100,0.00,,---,0.00,VWS V14.00,2013-07-21 14:09:00,
2013-07-21 09:14:00,72.3,72.0,29.89,SE,136,5.0,7.0,99,0.00,,---,0.00,VWS V14.00,2013-07-21 14:14:00,
2013-07-21 09:19:00,72.5,72.2,29.89,SE,136,4.0,4.0,99,0.00,,---,0.00,VWS V14.00,2013-07-21 14:19:00,
2013-07-21 09:24:00,72.5,72.2,29.89,SE,136,3.0,4.0,99,0.00,,---,0.00,VWS V14.00,2013-07-21 14:24:00,
2013-07-21 09:29:00,72.3,72.0,29.89,SE,136,4.0,4.0,99,0.00,,---,0.00,VWS V14.00,2013-07-21 14:29:00,
2013-07-21 09:34:00,72.3,72.0,29.89,SE,136,3.0,4.0,99,0.00,,---,0.00,VWS V14.00,2013-07-21 14:34:00,
2013-07-21 09:39:00,72.5,72.2,29.89,SE,136,2.0,4.0,99,0.00,,---,0.00,VWS V14.00,2013-07-21 14:39:00,
2013-07-21 09:44:00,72.1,71.8,29.89,SE,136,0.0,0.0,99,0.00,,---,0.00,VWS V14.00,2013-07-21 14:44:00,
2013-07-21 09:49:00,72.3,72.0,29.89,SE,136,3.0,4.0,99,0.00,,---,0.00,VWS V14.00,2013-07-21 14:49:00,
2013-07-21 09:54:00,72.5,72.2,29.89,SE,136,3.0,4.0,99,0.00,,---,0.00,VWS V14.00,2013-07-21 14:54:00,
2013-07-21 09:59:00,72.5,72.2,29.89,SE,136,4.0,4.0,99,0.00,,---,0.00,VWS V14.00,2013-07-21 14:59:00,
2013-07-21 10:04:00,72.5,72.2,29.89,SE,136,4.0,4.0,99,0.00,,---,0.00,VWS V14.00,2013-07-21 15:04:00,
2013-07-21 10:09:00,72.7,72.4,29.89,SE,136,2.0,2.0,99,0.00,,---,0.00,VWS V14.00,2013-07-21 15:09:00,
2013-07-21 10:14:00,73.0,72.7,29.89,SE,136,5.0,6.0,99,0.00,,---,0.00,VWS V14.00,2013-07-21 15:14:00,
2013-07-21 10:20:00,73.2,72.9,29.90,SE,136,5.0,5.0,99,0.00,,---,0.00,VWS V14.00,2013-07-21 15:20:00,
2013-07-21 10:25:00,73.2,72.6,29.90,SE,136,3.0,5.0,98,0.00,,---,0.00,VWS V14.00,2013-07-21 15:25:00,
2013-07-21 10:30:00,73.2,72.6,29.90,SE,136,4.0,5.0,98,0.00,,---,0.00,VWS V14.00,2013-07-21 15:30:00,
2013-07-21 10:35:00,73.5,72.9,29.90,SE,136,6.0,6.0,98,0.00,,---,0.00,VWS V14.00,2013-07-21 15:35:00,
2013-07-21 10:40:00,73.5,72.9,29.90,SE,136,5.0,5.0,98,0.00,,---,0.00,VWS V14.00,2013-07-21 15:40:00,
2013-07-21 10:45:00,73.7,72.8,29.90,SE,136,1.0,4.0,97,0.00,,---,0.00,VWS V14.00,2013-07-21 15:45:00,
2013-07-21 10:50:00,73.9,73.0,29.90,SE,136,6.0,6.0,97,0.00,,---,0.00,VWS V14.00,2013-07-21 15:50:00,
2013-07-21 10:55:00,73.9,73.0,29.90,SE,136,5.0,6.0,97,0.00,,---,0.00,VWS V14.00,2013-07-21 15:55:00,
2013-07-21 11:00:00,74.4,73.2,29.90,SE,136,2.0,6.0,96,0.00,,---,0.00,VWS V14.00,2013-07-21 16:00:00,
2013-07-21 11:05:00,74.6,73.4,29.90,SE,136,5.0,6.0,96,0.00,,---,0.00,VWS V14.00,2013-07-21 16:05:00,
2013-07-21 11:10:00,74.7,73.5,29.90,SE,136,7.0,7.0,96,0.00,,---,0.00,VWS V14.00,2013-07-21 16:10:00,
2013-07-21 11:16:00,74.9,73.4,29.90,SE,136,4.0,5.0,95,0.00,,---,0.00,VWS V14.00,2013-07-21 16:16:00,
2013-07-21 11:21:00,74.9,73.4,29.89,SE,136,4.0,5.0,95,0.00,,---,0.00,VWS V14.00,2013-07-21 16:21:00,
2013-07-21 11:26:00,74.7,72.9,29.89,SE,136,4.0,6.0,94,0.00,,---,0.00,VWS V14.00,2013-07-21 16:26:00,
2013-07-21 11:31:00,75.1,73.3,29.89,SE,136,5.0,7.0,94,0.00,,---,0.00,VWS V14.00,2013-07-21 16:31:00,
2013-07-21 11:36:00,75.3,73.1,29.89,SE,136,4.0,6.0,93,0.00,,---,0.00,VWS V14.00,2013-07-21 16:36:00,
2013-07-21 11:41:00,75.3,73.1,29.89,SE,136,6.0,10.0,93,0.00,,---,0.00,VWS V14.00,2013-07-21 16:41:00,
2013-07-21 11:46:00,75.6,73.1,29.89,SE,136,4.0,5.0,92,0.00,,---,0.00,VWS V14.00,2013-07-21 16:46:00,
2013-07-21 11:51:00,75.8,73.3,29.89,SE,136,4.0,7.0,92,0.00,,---,0.00,VWS V14.00,2013-07-21 16:51:00,
2013-07-21 11:56:00,75.8,73.0,29.89,SE,136,4.0,8.0,91,0.00,,---,0.00,VWS V14.00,2013-07-21 16:56:00,
2013-07-21 12:01:00,76.1,73.3,29.89,SE,136,4.0,7.0,91,0.00,,---,0.00,VWS V14.00,2013-07-21 17:01:00,
2013-07-21 12:07:00,76.1,72.6,29.89,SE,136,6.0,7.0,89,0.00,,---,0.00,VWS V14.00,2013-07-21 17:07:00,
2013-07-21 12:12:00,76.0,72.5,29.89,SE,136,6.0,6.0,89,0.00,,---,0.00,VWS V14.00,2013-07-21 17:12:00,
2013-07-21 12:17:00,76.3,72.8,29.89,SE,136,4.0,5.0,89,0.00,,---,0.00,VWS V14.00,2013-07-21 17:17:00,
2013-07-21 12:22:00,76.3,72.8,29.89,SE,136,3.0,4.0,89,0.00,,---,0.00,VWS V14.00,2013-07-21 17:22:00,
2013-07-21 12:27:00,76.3,72.8,29.89,SE,136,6.0,7.0,89,0.00,,---,0.00,VWS V14.00,2013-07-21 17:27:00,
2013-07-21 12:32:00,76.3,72.8,29.89,SE,136,3.0,7.0,89,0.00,,---,0.00,VWS V14.00,2013-07-21 17:32:00,
2013-07-21 12:37:00,76.1,72.6,29.89,SE,136,3.0,6.0,89,0.00,,---,0.00,VWS V14.00,2013-07-21 17:37:00,
2013-07-21 12:42:00,76.1,72.6,29.89,SE,136,4.0,6.0,89,0.00,,---,0.00,VWS V14.00,2013-07-21 17:42:00,
2013-07-21 12:47:00,76.0,72.5,29.89,SE,136,5.0,5.0,89,0.00,,---,0.00,VWS V14.00,2013-07-21 17:47:00,
2013-07-21 12:52:00,76.0,72.5,29.88,SE,136,3.0,6.0,89,0.00,,---,0.00,VWS V14.00,2013-07-21 17:52:00,
2013-07-21 12:57:00,76.1,73.0,29.88,SE,136,5.0,5.0,90,0.00,,---,0.00,VWS V14.00,2013-07-21 17:57:00,
2013-07-21 13:02:00,76.3,73.2,29.88,SE,136,6.0,7.0,90,0.00,,---,0.00,VWS V14.00,2013-07-21 18:02:00,
2013-07-21 13:08:00,76.3,73.2,29.89,SE,136,4.0,7.0,90,0.00,,---,0.00,VWS V14.00,2013-07-21 18:08:00,
2013-07-21 13:13:00,76.3,73.2,29.89,SE,136,3.0,6.0,90,0.00,,---,0.00,VWS V14.00,2013-07-21 18:13:00,
2013-07-21 13:18:00,76.1,72.6,29.89,SE,136,3.0,5.0,89,0.00,,---,0.00,VWS V14.00,2013-07-21 18:18:00,
2013-07-21 13:23:00,76.3,73.2,29.89,SE,136,1.0,4.0,90,0.00,,---,0.00,VWS V14.00,2013-07-21 18:23:00,
2013-07-21 13:28:00,76.1,72.6,29.89,SE,136,3.0,6.0,89,0.00,,---,0.00,VWS V14.00,2013-07-21 18:28:00,
2013-07-21 13:33:00,76.1,73.0,29.89,SE,136,3.0,5.0,90,0.00,,---,0.00,VWS V14.00,2013-07-21 18:33:00,
2013-07-21 13:38:00,76.1,73.0,29.88,SE,136,5.0,5.0,90,0.00,,---,0.00,VWS V14.00,2013-07-21 18:38:00,
2013-07-21 13:43:00,76.0,72.5,29.88,SE,136,4.0,5.0,89,0.00,,---,0.00,VWS V14.00,2013-07-21 18:43:00,
2013-07-21 13:48:00,75.8,72.3,29.87,SE,136,3.0,4.0,89,0.00,,---,0.00,VWS V14.00,2013-07-21 18:48:00,
2013-07-21 13:53:00,76.0,72.5,29.87,SE,136,3.0,5.0,89,0.00,,---,0.00,VWS V14.00,2013-07-21 18:53:00,
2013-07-21 13:59:00,76.0,72.5,29.87,SE,136,1.0,5.0,89,0.00,,---,0.00,VWS V14.00,2013-07-21 18:59:00,
2013-07-21 14:04:00,76.0,72.5,29.86,SE,136,4.0,5.0,89,0.00,,---,0.00,VWS V14.00,2013-07-21 19:04:00,
2013-07-21 14:09:00,76.1,72.6,29.86,SE,136,5.0,5.0,89,0.00,,---,0.00,VWS V14.00,2013-07-21 19:09:00,
2013-07-21 14:14:00,76.0,72.5,29.86,SE,136,2.0,4.0,89,0.00,,---,0.00,VWS V14.00,2013-07-21 19:14:00,
2013-07-21 14:19:00,76.0,72.5,29.87,SE,136,4.0,4.0,89,0.00,,---,0.00,VWS V14.00,2013-07-21 19:19:00,
2013-07-21 14:24:00,76.0,72.2,29.87,SE,136,0.0,3.0,88,0.00,,---,0.00,VWS V14.00,2013-07-21 19:24:00,
2013-07-21 14:29:00,76.1,72.6,29.87,SE,136,0.0,0.0,89,0.00,,---,0.00,VWS V14.00,2013-07-21 19:29:00,
2013-07-21 14:34:00,76.3,72.8,29.86,SE,136,3.0,5.0,89,0.00,,---,0.00,VWS V14.00,2013-07-21 19:34:00,
2013-07-21 14:39:00,76.5,73.0,29.86,SE,136,4.0,5.0,89,0.00,,---,0.00,VWS V14.00,2013-07-21 19:39:00,
2013-07-21 14:44:00,76.5,73.0,29.86,SE,136,4.0,5.0,89,0.00,,---,0.00,VWS V14.00,2013-07-21 19:44:00,
2013-07-21 14:49:00,76.5,73.0,29.86,SE,136,5.0,5.0,89,0.00,,---,0.00,VWS V14.00,2013-07-21 19:49:00,
2013-07-21 14:54:00,76.8,73.3,29.86,SE,136,3.0,5.0,89,0.00,,---,0.00,VWS V14.00,2013-07-21 19:54:00,
2013-07-21 14:59:00,76.7,72.9,29.86,SE,136,4.0,6.0,88,0.00,,---,0.00,VWS V14.00,2013-07-21 19:59:00,
2013-07-21 15:04:00,76.7,72.9,29.86,SE,136,4.0,5.0,88,0.00,,---,0.00,VWS V14.00,2013-07-21 20:04:00,
2013-07-21 15:09:00,76.5,72.7,29.86,SE,136,3.0,4.0,88,0.00,,---,0.00,VWS V14.00,2013-07-21 20:09:00,
2013-07-21 15:14:00,76.7,73.2,29.86,SE,136,4.0,7.0,89,0.00,,---,0.00,VWS V14.00,2013-07-21 20:14:00,
2013-07-21 15:19:00,76.7,73.2,29.86,SE,136,7.0,7.0,89,0.00,,---,0.00,VWS V14.00,2013-07-21 20:19:00,
2013-07-21 15:24:00,76.5,73.0,29.86,SE,136,3.0,7.0,89,0.00,,---,0.00,VWS V14.00,2013-07-21 20:24:00,
2013-07-21 15:29:00,76.7,73.2,29.86,SE,136,4.0,5.0,89,0.00,,---,0.00,VWS V14.00,2013-07-21 20:29:00,
2013-07-21 15:34:00,77.0,73.5,29.85,SE,136,5.0,7.0,89,0.00,,---,0.00,VWS V14.00,2013-07-21 20:34:00,
2013-07-21 15:39:00,77.2,73.7,29.85,SE,136,3.0,5.0,89,0.00,,---,0.00,VWS V14.00,2013-07-21 20:39:00,
2013-07-21 15:44:00,77.2,73.0,29.85,SE,136,2.0,6.0,87,0.00,,---,0.00,VWS V14.00,2013-07-21 20:44:00,
2013-07-21 15:49:00,77.7,74.2,29.84,SE,136,2.0,6.0,89,0.00,,---,0.00,VWS V14.00,2013-07-21 20:49:00,
2013-07-21 15:54:00,77.7,73.5,29.84,SE,136,6.0,6.0,87,0.00,,---,0.00,VWS V14.00,2013-07-21 20:54:00,
2013-07-21 15:59:00,77.2,72.3,29.84,SE,134,2.0,6.0,85,0.00,,---,0.00,VWS V14.00,2013-07-21 20:59:00,
2013-07-21 16:04:00,77.2,72.7,29.84,SE,134,6.0,8.0,86,0.00,,---,0.00,VWS V14.00,2013-07-21 21:04:00,
2013-07-21 16:09:00,77.4,72.9,29.84,SE,134,3.0,6.0,86,0.00,,---,0.00,VWS V14.00,2013-07-21 21:09:00,
2013-07-21 16:14:00,77.6,73.1,29.84,SE,134,4.0,4.0,86,0.00,,---,0.00,VWS V14.00,2013-07-21 21:14:00,
2013-07-21 16:19:00,77.4,72.5,29.84,SE,134,3.0,5.0,85,0.00,,---,0.00,VWS V14.00,2013-07-21 21:19:00,
2013-07-21 16:24:00,77.6,72.7,29.84,SE,134,3.0,5.0,85,0.00,,---,0.00,VWS V14.00,2013-07-21 21:24:00,
2013-07-21 16:29:00,77.4,72.5,29.84,SE,134,5.0,6.0,85,0.00,,---,0.00,VWS V14.00,2013-07-21 21:29:00,
2013-07-21 16:35:00,76.8,71.9,29.84,SE,136,6.0,8.0,85,0.00,,---,0.00,VWS V14.00,2013-07-21 21:35:00,
2013-07-21 16:40:00,77.0,72.2,29.84,SE,136,5.0,6.0,85,0.00,,---,0.00,VWS V14.00,2013-07-21 21:40:00,
2013-07-21 16:45:00,76.8,71.6,29.84,SE,135,3.0,6.0,84,0.00,,---,0.00,VWS V14.00,2013-07-21 21:45:00,
2013-07-21 16:50:00,76.7,71.2,29.83,SE,136,4.0,6.0,83,0.00,,---,0.00,VWS V14.00,2013-07-21 21:50:00,
2013-07-21 16:55:00,76.5,71.0,29.83,SE,136,4.0,5.0,83,0.00,,---,0.00,VWS V14.00,2013-07-21 21:55:00,
2013-07-21 17:00:00,76.3,70.8,29.83,SE,136,3.0,5.0,83,0.00,,---,0.00,VWS V14.00,2013-07-21 22:00:00,
2013-07-21 17:05:00,76.3,71.5,29.83,SE,136,2.0,5.0,85,0.00,,---,0.00,VWS V14.00,2013-07-21 22:05:00,
2013-07-21 17:10:00,76.1,70.9,29.83,SE,136,3.0,5.0,84,0.00,,---,0.00,VWS V14.00,2013-07-21 22:10:00,
2013-07-21 17:15:00,76.3,71.1,29.83,SE,136,3.0,6.0,84,0.00,,---,0.00,VWS V14.00,2013-07-21 22:15:00,
2013-07-21 17:20:00,76.5,71.7,29.83,SE,136,4.0,5.0,85,0.00,,---,0.00,VWS V14.00,2013-07-21 22:20:00,
2013-07-21 17:25:00,76.5,71.3,29.83,SE,136,7.0,10.0,84,0.00,,---,0.00,VWS V14.00,2013-07-21 22:25:00,
2013-07-21 17:30:00,76.7,71.5,29.83,SE,137,5.0,6.0,84,0.00,,---,0.00,VWS V14.00,2013-07-21 22:30:00,
2013-07-21 17:35:00,77.0,72.2,29.82,SE,138,4.0,9.0,85,0.00,,---,0.00,VWS V14.00,2013-07-21 22:35:00,
2013-07-21 17:42:00,77.2,72.0,29.82,SE,138,4.0,5.0,84,0.00,,---,0.00,VWS V14.00,2013-07-21 22:42:00,
2013-07-21 17:47:00,76.8,71.6,29.82,SE,138,4.0,4.0,84,0.00,,---,0.00,VWS V14.00,2013-07-21 22:47:00,
2013-07-21 17:52:00,76.7,71.5,29.81,SE,139,3.0,7.0,84,0.00,,---,0.00,VWS V14.00,2013-07-21 22:52:00,
2013-07-21 17:57:00,76.5,71.3,29.81,SE,141,5.0,9.0,84,0.00,,---,0.00,VWS V14.00,2013-07-21 22:57:00,
2013-07-21 18:02:00,76.1,70.6,29.81,SE,144,2.0,9.0,83,0.00,,---,0.00,VWS V14.00,2013-07-21 23:02:00,
2013-07-21 18:07:00,76.1,70.9,29.82,SE,144,2.0,4.0,84,0.00,,---,0.00,VWS V14.00,2013-07-21 23:07:00,
2013-07-21 18:12:00,76.0,71.2,29.82,SE,144,4.0,5.0,85,0.00,,---,0.00,VWS V14.00,2013-07-21 23:12:00,
2013-07-21 18:17:00,76.0,71.5,29.82,SE,144,4.0,4.0,86,0.00,,---,0.00,VWS V14.00,2013-07-21 23:17:00,
2013-07-21 18:22:00,75.8,71.0,29.81,SE,144,3.0,5.0,85,0.00,,---,0.00,VWS V14.00,2013-07-21 23:22:00,
2013-07-21 18:27:00,75.6,71.1,29.81,SE,144,3.0,4.0,86,0.00,,---,0.00,VWS V14.00,2013-07-21 23:27:00,
2013-07-21 18:32:00,75.6,71.5,29.81,SE,144,0.0,0.0,87,0.00,,---,0.00,VWS V14.00,2013-07-21 23:32:00,
2013-07-21 18:38:00,75.4,71.6,29.81,SE,144,0.0,0.0,88,0.00,,---,0.00,VWS V14.00,2013-07-21 23:38:00,
2013-07-21 18:43:00,75.4,71.6,29.81,SE,144,0.0,3.0,88,0.00,,---,0.00,VWS V14.00,2013-07-21 23:43:00,
2013-07-21 18:48:00,75.3,71.5,29.81,SE,144,0.0,0.0,88,0.00,,---,0.00,VWS V14.00,2013-07-21 23:48:00,
2013-07-21 18:53:00,75.3,71.8,29.80,SE,144,0.0,0.0,89,0.00,,---,0.00,VWS V14.00,2013-07-21 23:53:00,
2013-07-21 18:58:00,75.3,71.8,29.80,SE,144,0.0,0.0,89,0.00,,---,0.00,VWS V14.00,2013-07-21 23:58:00,
2013-07-21 19:03:00,75.3,71.8,29.80,SE,144,0.0,0.0,89,0.00,,---,0.00,VWS V14.00,2013-07-22 00:03:00,
2013-07-21 19:08:00,75.3,71.8,29.80,SE,144,0.0,0.0,89,0.00,,---,0.00,VWS V14.00,2013-07-22 00:08:00,
2013-07-21 19:13:00,75.1,72.0,29.80,SE,144,0.0,0.0,90,0.00,,---,0.00,VWS V14.00,2013-07-22 00:13:00,
2013-07-21 19:18:00,75.1,72.0,29.80,SE,144,0.0,0.0,90,0.00,,---,0.00,VWS V14.00,2013-07-22 00:18:00,
2013-07-21 19:23:00,75.1,72.0,29.81,SE,144,0.0,0.0,90,0.00,,---,0.00,VWS V14.00,2013-07-22 00:23:00,
2013-07-21 19:28:00,74.9,72.1,29.81,SE,144,0.0,0.0,91,0.00,,---,0.00,VWS V14.00,2013-07-22 00:28:00,
2013-07-21 19:33:00,74.9,72.1,29.81,SE,144,0.0,0.0,91,0.00,,---,0.00,VWS V14.00,2013-07-22 00:33:00,
2013-07-21 19:38:00,74.7,71.9,29.81,SE,144,0.0,0.0,91,0.00,,---,0.00,VWS V14.00,2013-07-22 00:38:00,
2013-07-21 19:43:00,74.7,71.9,29.81,SE,144,0.0,0.0,91,0.00,,---,0.00,VWS V14.00,2013-07-22 00:43:00,
2013-07-21 19:48:00,74.7,71.9,29.81,SE,144,0.0,0.0,91,0.00,,---,0.00,VWS V14.00,2013-07-22 00:48:00,
2013-07-21 19:53:00,74.6,71.8,29.81,SE,144,0.0,0.0,91,0.00,,---,0.00,VWS V14.00,2013-07-22 00:53:00,
2013-07-21 19:59:00,74.6,71.8,29.81,SE,144,0.0,0.0,91,0.00,,---,0.00,VWS V14.00,2013-07-22 00:59:00,
2013-07-21 20:04:00,74.4,71.6,29.82,SE,144,0.0,0.0,91,0.00,,---,0.00,VWS V14.00,2013-07-22 01:04:00,
2013-07-21 20:09:00,74.4,71.6,29.82,SE,144,0.0,0.0,91,0.00,,---,0.00,VWS V14.00,2013-07-22 01:09:00,
2013-07-21 20:14:00,74.4,71.9,29.82,SE,144,0.0,0.0,92,0.00,,---,0.00,VWS V14.00,2013-07-22 01:14:00,
2013-07-21 20:19:00,74.4,71.9,29.83,SE,144,0.0,0.0,92,0.00,,---,0.00,VWS V14.00,2013-07-22 01:19:00,
2013-07-21 20:24:00,74.2,71.7,29.83,SE,144,0.0,0.0,92,0.00,,---,0.00,VWS V14.00,2013-07-22 01:24:00,
2013-07-21 20:29:00,74.2,71.7,29.83,SE,144,0.0,0.0,92,0.00,,---,0.00,VWS V14.00,2013-07-22 01:29:00,
2013-07-21 20:34:00,74.0,71.5,29.82,SE,144,0.0,0.0,92,0.00,,---,0.00,VWS V14.00,2013-07-22 01:34:00,
2013-07-21 20:39:00,74.0,71.5,29.82,SE,144,0.0,0.0,92,0.00,,---,0.00,VWS V14.00,2013-07-22 01:39:00,
2013-07-21 20:44:00,74.0,71.5,29.82,SE,144,0.0,0.0,92,0.00,,---,0.00,VWS V14.00,2013-07-22 01:44:00,
2013-07-21 20:49:00,74.0,71.5,29.83,SE,144,0.0,0.0,92,0.00,,---,0.00,VWS V14.00,2013-07-22 01:49:00,
2013-07-21 20:54:00,73.9,71.8,29.83,SE,144,0.0,0.0,93,0.00,,---,0.00,VWS V14.00,2013-07-22 01:54:00,
2013-07-21 20:59:00,73.9,71.8,29.83,SE,144,0.0,0.0,93,0.00,,---,0.00,VWS V14.00,2013-07-22 01:59:00,
2013-07-21 21:04:00,73.7,71.6,29.83,SE,144,0.0,0.0,93,0.00,,---,0.00,VWS V14.00,2013-07-22 02:04:00,
2013-07-21 21:09:00,73.7,71.6,29.83,SE,144,0.0,0.0,93,0.00,,---,0.00,VWS V14.00,2013-07-22 02:09:00,
2013-07-21 21:14:00,73.7,71.6,29.83,SE,144,0.0,0.0,93,0.00,,---,0.00,VWS V14.00,2013-07-22 02:14:00,
2013-07-21 21:19:00,73.5,71.4,29.83,SE,144,0.0,0.0,93,0.00,,---,0.00,VWS V14.00,2013-07-22 02:19:00,
2013-07-21 21:24:00,73.5,71.4,29.83,SE,144,0.0,0.0,93,0.00,,---,0.00,VWS V14.00,2013-07-22 02:24:00,
2013-07-21 21:29:00,73.3,71.5,29.83,SE,144,0.0,0.0,94,0.00,,---,0.00,VWS V14.00,2013-07-22 02:29:00,
2013-07-21 21:36:00,73.3,71.5,29.83,SE,144,0.0,0.0,94,0.00,,---,0.00,VWS V14.00,2013-07-22 02:36:00,
2013-07-21 21:41:00,73.3,71.5,29.83,SE,144,0.0,0.0,94,0.00,,---,0.00,VWS V14.00,2013-07-22 02:41:00,
2013-07-21 21:46:00,73.2,71.4,29.83,SE,144,0.0,0.0,94,0.00,,---,0.00,VWS V14.00,2013-07-22 02:46:00,
2013-07-21 21:51:00,73.0,71.5,29.83,SE,144,0.0,0.0,95,0.00,,---,0.00,VWS V14.00,2013-07-22 02:51:00,
2013-07-21 21:56:00,73.0,71.5,29.83,SE,144,0.0,0.0,95,0.00,,---,0.00,VWS V14.00,2013-07-22 02:56:00,
2013-07-21 22:01:00,72.8,71.3,29.83,SE,144,0.0,0.0,95,0.00,,---,0.00,VWS V14.00,2013-07-22 03:01:00,
2013-07-21 22:06:00,72.8,71.3,29.83,SE,144,0.0,0.0,95,0.00,,---,0.00,VWS V14.00,2013-07-22 03:06:00,
2013-07-21 22:11:00,72.7,71.2,29.83,SE,144,0.0,0.0,95,0.00,,---,0.00,VWS V14.00,2013-07-22 03:11:00,
2013-07-21 22:16:00,72.8,71.6,29.83,SE,144,0.0,0.0,96,0.00,,---,0.00,VWS V14.00,2013-07-22 03:16:00,
2013-07-21 22:21:00,73.0,71.8,29.83,SE,144,0.0,0.0,96,0.00,,---,0.00,VWS V14.00,2013-07-22 03:21:00,
2013-07-21 22:26:00,72.8,71.6,29.83,SE,144,0.0,0.0,96,0.00,,---,0.00,VWS V14.00,2013-07-22 03:26:00,
2013-07-21 22:31:00,72.8,71.6,29.83,SE,144,0.0,0.0,96,0.00,,---,0.00,VWS V14.00,2013-07-22 03:31:00,
2013-07-21 22:37:00,72.7,71.5,29.83,SE,144,0.0,0.0,96,0.00,,---,0.00,VWS V14.00,2013-07-22 03:37:00,
2013-07-21 22:43:00,72.7,71.5,29.83,SE,144,0.0,0.0,96,0.00,,---,0.00,VWS V14.00,2013-07-22 03:43:00,
2013-07-21 22:48:00,72.7,71.5,29.83,SE,144,0.0,0.0,96,0.00,,---,0.00,VWS V14.00,2013-07-22 03:48:00,
2013-07-21 22:53:00,72.7,71.5,29.82,SE,144,0.0,0.0,96,0.00,,---,0.00,VWS V14.00,2013-07-22 03:53:00,
2013-07-21 22:57:00,72.7,71.5,29.82,SE,144,0.0,0.0,96,0.00,,---,0.00,VWS V14.00,2013-07-22 03:57:00,
2013-07-21 23:01:00,72.7,71.5,29.82,SE,144,0.0,0.0,96,0.00,,---,0.00,VWS V14.00,2013-07-22 04:01:00,
2013-07-21 23:03:00,72.7,71.5,29.82,SE,144,0.0,0.0,96,0.00,,---,0.00,VWS V14.00,2013-07-22 04:03:00,
2013-07-21 23:08:00,72.5,71.3,29.82,SE,144,0.0,0.0,96,0.00,,---,0.00,VWS V14.00,2013-07-22 04:08:00,
2013-07-21 23:13:00,72.5,71.3,29.82,SE,144,0.0,0.0,96,0.00,,---,0.00,VWS V14.00,2013-07-22 04:13:00,
2013-07-21 23:18:00,72.5,71.3,29.81,SE,144,0.0,0.0,96,0.00,,---,0.00,VWS V14.00,2013-07-22 04:18:00,
2013-07-21 23:23:00,72.5,71.6,29.81,SE,144,0.0,0.0,97,0.00,,---,0.00,VWS V14.00,2013-07-22 04:23:00,
2013-07-21 23:28:00,72.5,71.6,29.81,SE,144,0.0,0.0,97,0.00,,---,0.00,VWS V14.00,2013-07-22 04:28:00,
2013-07-21 23:33:00,72.3,71.4,29.81,SE,144,0.0,0.0,97,0.00,,---,0.00,VWS V14.00,2013-07-22 04:33:00,
2013-07-21 23:39:00,72.3,71.4,29.81,SE,144,0.0,0.0,97,0.00,,---,0.00,VWS V14.00,2013-07-22 04:39:00,
2013-07-21 23:44:00,72.1,71.2,29.81,SE,144,0.0,0.0,97,0.00,,---,0.00,VWS V14.00,2013-07-22 04:44:00,
2013-07-21 23:49:00,72.1,71.2,29.81,SE,144,0.0,0.0,97,0.00,,---,0.00,VWS V14.00,2013-07-22 04:49:00,
2013-07-21 23:54:00,72.1,71.5,29.81,SE,144,0.0,0.0,98,0.00,,---,0.00,VWS V14.00,2013-07-22 04:54:00,
2013-07-21 23:59:00,71.8,70.9,29.81,SE,144,2.0,3.0,97,0.00,,---,0.00,VWS V14.00,2013-07-22 04:59:00,